Location: Waco, TX
(31.5480°N, 97.1670°W)
Time: 10:54:58

ISS - Pass Details

Date: 12 March 2018
Orbit: 403 x 406 km, 51.6° (Epoch: 21 March)

Event Time Altitude Azimuth Distance (km) Brightness Sun altitude
Rises 23:49:20 0° 178° (S) 2,308 - -51.6°
Reaches altitude 10° 23:53:12 10° 132° (SE) 1,455 - -52.2°
Maximum altitude 23:53:35 10° 125° (SE) 1,446 - -52.3°
Drops below altitude 10° 23:53:58 10° 118° (ESE) 1,456 - -52.3°
Sets 23:57:50 0° 72° (ENE) 2,321 - -52.9°
